Stations météo

Publicité
Brest, France (7110): Température de l'air & dewpoint: 13.02.2020 08:00:00 - 19.02.2020 08:00:00 (CET)Brest, France (7110): Température de l'air 5cm: 13.02.2020 08:00:00 - 19.02.2020 08:00:00 (CET)Brest, France (7110): Température de l'air -20cm & Température de l'air -100cm: 13.02.2020 08:00:00 - 19.02.2020 08:00:00 (CET)Brest, France (7110): Vitesse du vent & gusts: 13.02.2020 08:00:00 - 19.02.2020 08:00:00 (CET)Brest, France (7110): Direction du vent: 13.02.2020 08:00:00 - 19.02.2020 08:00:00 (CET)Brest, France (7110): reduced air pressure: 13.02.2020 08:00:00 - 19.02.2020 08:00:00 (CET)Brest, France (7110): visibility: 13.02.2020 08:00:00 - 19.02.2020 08:00:00 (CET)Brest, France (7110): Ensoleillement: 13.02.2020 08:00:00 - 19.02.2020 08:00:00 (CET)Brest, France (7110): Quantités de précipitations: 13.02.2020 08:00:00 - 19.02.2020 08:00:00 (CET)
Date & Time tt [°C] td [°C] tt 5cm [°C] tt -20cm [°C] tt -100cm [°C] ff [km/h] ff [knt] fx [km/h] fx [knt] dd ppp [hPa] vv [km] sd [min] rr [mm]
19.02.2020 08:00:00 8,5 7,3 7,0 8,9 9,5 12 7 22 12 SW 1027,5 5 0 0,0
19.02.2020 07:00:00 8,1 6,9 6,5 9,0 9,6 10 5 15 8 SW 1027,5 12 0 0,0
19.02.2020 06:00:00 7,6 6,4 4,4 9,0 9,5 10 6 13 7 SW 1027,3 14 0 0,0
19.02.2020 05:00:00 7,1 5,9 5,5 9,0 9,6 8 4 15 8 W 1027,1 15 0 0,0
19.02.2020 04:00:00 7,5 6,0 5,2 9,0 9,5 8 4 24 13 W 1027,3 14 0 0,0
19.02.2020 03:00:00 7,8 5,4 5,9 8,9 9,5 14 8 49 26 WNW 1027,4 19 0 0,0
19.02.2020 02:00:00 8,3 6,6 7,4 9,0 9,5 23 13 62 33 WNW 1027,1 8 0 0,4
19.02.2020 01:00:00 9,5 7,6 8,1 8,9 9,5 29 16 58 31 W 1026,7 14 0 0,0
19.02.2020 00:00:00 9,2 7,6 8,1 9,0 9,6 24 13 50 27 W 1026,7 16 0 1,4
18.02.2020 23:00:00 9,2 7,5 6,8 9,0 9,6 23 13 44 24 W 1026,9 7 0 0,0
18.02.2020 22:00:00 8,5 6,3 6,7 8,9 9,5 20 11 42 23 W 1026,7 38 0 1,2
18.02.2020 21:00:00 8,9 6,3 7,5 8,9 9,5 22 12 48 26 WSW 1026,4 16 0 0,0
18.02.2020 20:00:00 9,1 6,5 7,1 9,0 9,6 25 13 51 28 W 1026,8 17 0 0,0
18.02.2020 19:00:00 8,8 6,6 7,0 8,9 9,6 23 13 46 25 W 1026,6 20 0 0,0
18.02.2020 18:00:00 8,7 6,1 7,2 8,9 9,5 19 11 48 26 W 1026,5 48 4 0,2
18.02.2020 17:00:00 8,9 7,3 8,1 8,9 9,5 22 12 54 29 WSW 1027,0 18 0 0,8
18.02.2020 16:00:00 10,2 5,8 10,4 8,9 9,6 35 19 55 30 WSW 1026,9 44 10 0,0
18.02.2020 15:00:00 10,5 5,9 9,9 8,9 9,5 36 19 56 31 WSW 1027,5 33 9 0,0
18.02.2020 14:00:00 10,6 6,7 8,3 8,9 9,5 33 18 57 31 WSW 1027,9 33 21 0,2
18.02.2020 13:00:00 10,5 5,7 10,0 8,9 9,5 31 17 55 30 WSW 1028,4 24 35 0,0
18.02.2020 12:00:00 10,3 5,9 9,3 8,9 9,5 27 15 50 27 WSW 1028,7 13 49 0,0
18.02.2020 11:00:00 9,7 5,9 7,7 8,9 9,5 26 14 40 21 WSW 1028,5 19 58 0,0
18.02.2020 10:00:00 8,3 5,9 2,7 8,9 9,5 13 7 20 11 WSW 1028,7 40 29 0,0
18.02.2020 09:00:00 5,3 3,3 2,7 9,0 9,5 11 6 21 12 WSW 1028,7 10 7 0,0
18.02.2020 08:00:00 5,8 3,6 2,2 9,0 9,5 12 7 31 17 WSW 1028,2 60 0 0,0
18.02.2020 07:00:00 4,9 3,2 2,4 9,0 9,5 12 7 22 12 WSW 1027,8 20 0 0,0
18.02.2020 06:00:00 5,9 4,1 4,1 9,1 9,5 15 8 34 18 WSW 1027,5 50 0 0,0
18.02.2020 05:00:00 6,2 3,9 3,1 9,1 9,5 15 8 42 23 W 1027,6 59 0 0,0
18.02.2020 04:00:00 5,7 3,7 3,1 9,1 9,5 12 6 24 13 W 1027,7 41 0 0,0
18.02.2020 03:00:00 5,4 3,7 3,2 9,2 9,5 16 9 29 16 WSW 1027,8 43 0 0,0
18.02.2020 02:00:00 5,8 4,0 3,7 9,2 9,5 13 7 36 19 WSW 1027,6 42 0 1,0
18.02.2020 01:00:00 6,4 3,4 1,9 9,2 9,5 6 4 27 14 WNW 1027,6 15 0 0,0
18.02.2020 00:00:00 5,6 2,2 1,8 9,2 9,5 14 8 23 12 WSW 1027,4 20 0 0,0
17.02.2020 23:00:00 5,5 2,8 2,9 9,3 9,5 13 7 25 13 W 1026,9 20 0 0,0
17.02.2020 22:00:00 5,8 2,8 2,8 9,3 9,5 16 9 44 24 WSW 1026,5 44 0 0,0
17.02.2020 21:00:00 5,2 2,7 2,8 9,4 9,5 14 8 55 30 WSW 1025,9 50 0 0,2
17.02.2020 20:00:00 6,7 3,5 4,1 9,4 9,5 13 7 37 20 W 1025,2 18 0 0,0
17.02.2020 19:00:00 7,1 3,5 4,3 9,4 9,5 19 10 43 23 W 1023,8 39 13 0,2
17.02.2020 18:00:00 8,3 4,3 6,0 9,4 9,5 21 11 50 27 W 1022,6 19 43 0,4
17.02.2020 17:00:00 8,8 4,6 6,3 9,4 9,5 24 13 60 32 W 1021,9 12 40 0,4
17.02.2020 16:00:00 8,5 3,9 6,8 9,4 9,5 28 15 59 32 WSW 1021,3 20 40 0,0
17.02.2020 15:00:00 7,7 3,7 6,7 9,5 9,5 37 20 74 40 W 1020,6 11 31 0,0
17.02.2020 14:00:00 8,0 4,4 4,3 9,5 9,5 24 13 80 43 WSW 1020,0 19 20 1,8
17.02.2020 13:00:00 9,9 4,3 8,9 9,6 9,5 33 18 64 35 W 1019,5 9 46 0,0
17.02.2020 12:00:00 10,2 4,3 7,5 9,6 9,5 32 18 66 35 WSW 1018,8 3,7 39 0,0
17.02.2020 11:00:00 9,7 4,1 6,8 9,6 9,4 31 17 54 29 W 1018,0 12 48 0,2
17.02.2020 10:00:00 8,6 3,2 5,0 9,7 9,5 26 14 47 26 W 1016,9 19 42 0,0
17.02.2020 09:00:00 6,9 4,2 3,9 9,7 9,5 27 15 58 31 WSW 1016,1 20 0 0,0
17.02.2020 08:00:00 5,7 2,9 4,1 9,8 9,5 29 16 81 44 W 1015,3 20 0 0,4
17.02.2020 07:00:00 7,4 4,0 5,3 9,9 9,5 27 15 47 25 WSW 1014,2 42 0 0,0
17.02.2020 06:00:00 8,0 4,8 5,6 9,9 9,5 31 17 49 26 WSW 1013,7 20 0 0,0
17.02.2020 05:00:00 7,8 4,2 5,2 9,9 9,4 31 17 54 29 WSW 1013,8 51 0 0,0
17.02.2020 04:00:00 7,3 4,3 4,6 10,0 9,5 25 14 40 21 WSW 1013,7 46 0 0,0
17.02.2020 03:00:00 6,8 4,5 5,2 10,1 9,4 23 12 61 33 WSW 1014,2 41 0 0,4
17.02.2020 02:00:00 8,0 3,5 5,4 10,1 9,4 27 15 46 25 WSW 1013,9 45 0 0,0
17.02.2020 01:00:00 8,4 3,0 5,7 10,2 9,4 24 13 40 22 SW 1013,6 20 0 0,0
17.02.2020 00:00:00 8,5 3,3 5,5 10,2 9,4 24 13 37 20 SW 1013,3 20 0 0,0
16.02.2020 23:00:00 8,1 3,4 5,5 10,3 9,4 21 11 40 22 WSW 1012,8 20 0 0,0
16.02.2020 22:00:00 7,8 3,6 5,0 10,4 9,4 19 10 39 21 WSW 1011,9 20 0 0,0
16.02.2020 21:00:00 8,0 4,0 5,2 10,4 9,4 24 13 39 21 WSW 1011,0 19 0 0,0
16.02.2020 20:00:00 8,1 4,7 5,9 10,5 9,4 23 12 46 25 WSW 1010,3 17 0 0,0
16.02.2020 19:00:00 8,3 6,3 6,6 10,5 9,4 21 11 45 25 W 1008,9 15 0 0,0
16.02.2020 18:00:00 8,6 7,7 8,0 10,5 9,4 22 12 54 29 W 1007,5 5 0 1,8
16.02.2020 17:00:00 9,2 8,1 8,6 10,5 9,3 31 17 46 25 SW 1005,9 16 0 0,0
16.02.2020 16:00:00 8,7 7,9 8,6 10,5 9,3 32 18 48 26 SW 1005,4 20 0 0,2
16.02.2020 15:00:00 8,2 7,9 8,2 10,4 9,3 21 11 58 32 WSW 1004,5 13 0 0,8
16.02.2020 14:00:00 7,7 7,6 8,0 10,3 9,3 33 18 90 48 W 1003,4 3,3 0 3,1
16.02.2020 13:00:00 12,4 12,2 12,5 10,1 9,3 63 34 100 54 SSW 998,9 1,6 0 4,0
16.02.2020 12:00:00 12,6 12,3 12,5 10,0 9,3 56 30 107 58 SSW 999,2 1,6 0 1,8
16.02.2020 11:00:00 12,6 12,3 12,5 9,9 9,3 62 34 101 54 SSW 999,4 2,0 0 1,2
16.02.2020 10:00:00 12,6 12,3 12,3 9,8 9,3 58 31 94 51 SSW 999,8 1,9 0 1,8
16.02.2020 09:00:00 12,5 12,2 12,2 9,8 9,3 56 31 97 52 SSW 1000,5 3,0 0 1,2
16.02.2020 08:00:00 12,4 12,1 12,2 9,7 9,3 58 32 96 52 SSW 1000,6 2,0 0 3,5
16.02.2020 07:00:00 12,7 12,2 12,3 9,6 9,3 57 31 99 53 SSW 1000,8 1,9 0 1,6
16.02.2020 06:00:00 13,0 12,4 12,5 9,6 9,3 68 37 110 59 SW 1001,3 2,2 0 1,2
16.02.2020 05:00:00 13,2 12,1 12,3 9,6 9,3 62 34 102 55 SW 1001,7 6 0 0,0
16.02.2020 04:00:00 12,7 12,1 12,2 9,6 9,3 64 34 101 55 SSW 1002,2 2,8 0 1,0
16.02.2020 03:00:00 12,5 12,0 12,1 9,5 9,3 58 31 97 53 SSW 1002,9 2,2 0 0,4
16.02.2020 02:00:00 12,6 12,0 12,0 9,5 9,3 56 30 93 50 SSW 1003,5 6 0 0,2
16.02.2020 01:00:00 12,4 11,9 12,0 9,5 9,3 50 27 93 50 SSW 1004,0 4,0 0 0,4
16.02.2020 00:00:00 12,6 12,0 12,0 9,4 9,3 53 29 93 50 SSW 1004,9 5 0 1,0
15.02.2020 23:00:00 12,4 11,8 12,0 9,4 9,3 50 27 89 48 SSW 1005,4 5 0 0,4
15.02.2020 22:00:00 12,4 11,9 11,9 9,4 9,3 50 27 94 51 SSW 1006,1 5 0 0,0
15.02.2020 21:00:00 12,3 12,0 11,9 9,4 9,3 50 27 90 49 SSW 1006,6 3,8 0 0,2
15.02.2020 20:00:00 12,3 12,0 11,8 9,3 9,3 55 30 91 49 SSW 1007,0 2,2 0 1,2
15.02.2020 19:00:00 12,2 11,7 11,7 9,2 9,3 54 29 92 50 SSW 1007,0 4,5 0 0,4
15.02.2020 18:00:00 12,0 11,5 11,7 9,2 9,3 55 30 93 50 SSW 1006,9 2,2 0 1,0
15.02.2020 17:00:00 12,1 11,5 11,6 9,2 9,3 56 30 90 48 SSW 1006,9 3,0 0 2,3
15.02.2020 16:00:00 12,0 11,2 11,4 9,2 9,3 54 29 93 50 SSW 1007,5 2,2 0 3,4
15.02.2020 15:00:00 11,9 11,0 11,4 9,2 9,3 56 30 90 49 SSW 1008,1 3,9 0 2,0
15.02.2020 14:00:00 12,2 10,8 11,4 9,1 9,3 59 32 98 53 SSW 1009,0 7 0 0,2
15.02.2020 13:00:00 12,1 10,8 11,6 9,1 9,3 56 30 91 49 SSW 1010,1 13 0 0,0
15.02.2020 12:00:00 12,3 10,5 11,9 9,1 9,3 53 29 82 44 SSW 1011,0 12 0 0,0
15.02.2020 11:00:00 12,2 10,4 11,6 9,0 9,3 49 26 79 42 SSW 1011,7 17 0 0,0
15.02.2020 10:00:00 12,1 10,5 11,4 9,0 9,3 41 22 73 39 SSW 1012,6 15 0 0,0
15.02.2020 09:00:00 11,9 10,5 11,2 9,0 9,3 46 25 71 39 SSW 1013,5 13 0 0,0
15.02.2020 08:00:00 11,8 10,7 11,2 9,0 9,3 44 24 63 34 SSW 1013,7 15 0 0,0
15.02.2020 07:00:00 11,8 10,7 11,0 9,0 9,3 43 23 64 35 SSW 1014,1 13 0 0,0
15.02.2020 06:00:00 11,7 10,6 11,1 8,9 9,3 45 25 69 38 SSW 1014,3 13 0 0,0
15.02.2020 05:00:00 11,8 10,7 11,2 8,9 9,3 40 22 59 32 SSW 1015,4 12 0 0,0
15.02.2020 04:00:00 11,8 11,0 11,2 8,9 9,3 38 20 57 31 SSW 1015,9 11 0 0,0
15.02.2020 03:00:00 11,6 11,1 11,2 8,9 9,3 36 19 56 30 SSW 1016,8 7 0 0,0
15.02.2020 02:00:00 11,7 11,1 11,2 8,9 9,4 35 19 54 29 SSW 1017,4 4,8 0 0,0
15.02.2020 01:00:00 11,7 10,9 11,1 8,8 9,3 34 19 58 32 SSW 1017,4 11 0 0,0
15.02.2020 00:00:00 11,8 10,9 11,1 8,8 9,3 35 19 53 29 SSW 1017,9 14 0 0,0
14.02.2020 23:00:00 11,7 10,8 11,0 8,8 9,3 34 18 49 26 SSW 1018,4 13 0 0,0
14.02.2020 22:00:00 11,7 10,8 11,0 8,8 9,3 34 19 54 29 SSW 1019,0 13 0 0,0
14.02.2020 21:00:00 11,6 10,8 10,9 8,7 9,3 36 19 53 29 SSW 1019,1 11 0 0,0
14.02.2020 20:00:00 11,4 10,8 10,9 8,7 9,3 36 19 50 27 SSW 1019,4 12 0 0,0
14.02.2020 19:00:00 11,2 10,7 10,8 8,7 9,3 32 17 49 26 SSW 1019,5 7 0 0,0
14.02.2020 18:00:00 11,3 10,5 10,8 8,7 9,3 32 17 48 26 SSW 1019,6 5 0 0,2
14.02.2020 17:00:00 11,3 10,4 10,9 8,6 9,3 32 17 51 28 SSW 1019,9 7 0 0,0
14.02.2020 16:00:00 11,4 10,0 10,9 8,6 9,3 34 18 53 29 SSW 1020,0 8 0 0,2
14.02.2020 15:00:00 11,1 9,5 11,1 8,5 9,3 27 15 55 30 SSW 1020,1 8 0 0,0
14.02.2020 14:00:00 11,0 9,4 11,1 8,5 9,3 31 17 55 30 SSW 1020,7 5 0 0,0
14.02.2020 13:00:00 11,2 8,1 11,7 8,5 9,3 30 16 50 27 SSW 1020,9 13 0 0,0
14.02.2020 12:00:00 11,1 7,8 10,9 8,5 9,4 30 16 48 26 S 1020,8 11 1 0,0
14.02.2020 11:00:00 10,5 7,6 10,1 8,5 9,4 27 15 48 26 SSW 1021,3 11 0 0,0
14.02.2020 10:00:00 10,1 7,9 8,1 8,5 9,4 31 17 44 24 SSW 1021,4 11 1 0,0
14.02.2020 09:00:00 9,5 7,1 7,5 8,5 9,3 23 12 41 22 SSW 1021,2 10 0 0,0
14.02.2020 08:00:00 9,3 7,2 6,3 8,5 9,4 23 12 42 23 SSW 1020,4 9 0 0,0
14.02.2020 07:00:00 8,2 7,0 4,9 8,6 9,3 19 10 30 16 SSW 1020,3 8 0 0,0
14.02.2020 06:00:00 7,9 5,7 5,0 8,5 9,3 17 9 32 18 SSW 1019,9 10 0 0,0
14.02.2020 05:00:00 7,8 6,1 4,9 8,6 9,3 16 9 23 13 SSW 1020,0 10 0 0,0
14.02.2020 04:00:00 8,0 6,6 5,0 8,6 9,3 13 7 22 12 SW 1019,8 10 0 0,0
14.02.2020 03:00:00 8,8 7,4 6,5 8,6 9,3 11 6 20 11 SW 1019,7 11 0 0,0
14.02.2020 02:00:00 8,4 6,7 6,6 8,6 9,4 14 7 26 14 WSW 1019,8 12 0 0,0
14.02.2020 01:00:00 8,7 6,7 5,2 8,6 9,4 13 7 26 14 WSW 1019,3 13 0 0,0
14.02.2020 00:00:00 8,6 6,0 6,1 8,6 9,4 15 8 31 17 W 1018,7 14 0 0,0
13.02.2020 23:00:00 9,1 5,8 7,1 8,6 9,4 16 9 39 21 W 1018,3 15 0 0,0
13.02.2020 22:00:00 9,7 6,4 8,0 8,6 9,4 23 12 48 26 WNW 1017,2 15 0 0,0
13.02.2020 21:00:00 9,8 6,1 7,9 8,6 9,4 23 12 49 27 W 1016,0 16 0 0,0
13.02.2020 20:00:00 9,6 6,7 7,9 8,6 9,4 26 14 64 34 W 1014,6 12 0 0,0
13.02.2020 19:00:00 9,5 6,6 8,0 8,5 9,4 29 16 61 33 W 1013,4 11 0 0,0
13.02.2020 18:00:00 9,6 6,3 8,1 8,5 9,4 33 18 68 37 WNW 1011,7 11 0 0,0
13.02.2020 17:00:00 10,0 6,9 8,6 8,5 9,4 32 17 68 37 W 1010,0 12 0 0,2
13.02.2020 16:00:00 10,4 6,9 8,9 8,5 9,4 34 18 87 47 W 1008,2 12 0 0,0
13.02.2020 15:00:00 10,8 6,9 9,2 8,5 9,4 40 21 74 40 W 1006,8 10 1 0,0
13.02.2020 14:00:00 10,7 7,2 8,9 8,5 9,4 44 24 94 51 W 1005,5 8 0 0,8
13.02.2020 13:00:00 10,9 7,0 9,2 8,5 9,4 48 26 90 48 W 1004,2 9 0 0,0
13.02.2020 12:00:00 10,4 6,7 7,8 8,5 9,4 49 26 99 54 W 1003,1 8 0 0,0
13.02.2020 11:00:00 9,6 5,9 7,9 8,5 9,4 50 27 99 54 WSW 1002,2 7 0 0,0
13.02.2020 10:00:00 9,8 5,2 7,5 8,5 9,4 51 28 99 54 WSW 1001,9 12 0 0,0
13.02.2020 09:00:00 9,7 3,9 7,5 8,5 9,4 53 28 95 51 WSW 1001,8 12 0 0,2
13.02.2020 08:00:00 9,6 4,4 7,2 8,5 9,4 54 29 90 48 WSW 1001,6 11 0 0,0

tt = Température de l'air
td = dewpoint
tt 5cm = Température de l'air 5cm
tt -20cm = Température de l'air -20cm
tt -100cm = Température de l'air -100cm
ff = Vitesse du vent
fx = gusts
dd = Direction du vent
ppp = reduced air pressure
vv = visibility
sd = Ensoleillement
rr = Quantités de précipitations

stations d'obs. à proximité